Location: Korczew
(51.3586°N, 19.4491°E)
Time: 18:09:49
(UTC+00:00)

In-Cosmos 22 - Pass Details

Date: 19 May 2025
Orbit: 783 x 875 km, 81.2° (Epoch: 20 June)

Event Time Altitude Azimuth Distance (km) Brightness Sun altitude
Exits shadow 23:31:02 30° 203° (SSW) 1,524 5.0 -17.7°
Maximum altitude 23:34:01 75° 284° (WNW) 906 4.3 -17.6°
Drops below altitude 10° 23:39:49 10° 10° (N) 2,539 8.0 -17.4°
Sets 23:42:18 0° 12° (NNE) 3,482 9.2 -17.3°
